Location: Barton Flats Campground
(34.1722°N, 116.8753°W)
Time: 19:41:35
(UTC+00:00)

USA 267 - Pass Details

Date: 08 August 2020
Orbit: 1101 x 1106 km, 123.0° (Epoch: 22 September)

Event Time Altitude Azimuth Distance (km) Brightness Sun altitude
Rises 12:05:10 0° 137° (SE) 3,903 6.3 -11.9°
Reaches altitude 10° 12:07:38 10° 138° (SE) 2,948 5.7 -11.5°
Maximum altitude 12:14:09 86° 226° (SW) 1,107 3.3 -10.3°
Drops below altitude 10° 12:20:43 10° 316° (NW) 2,962 5.4 -9.1°
Sets 12:23:12 0° 317° (NW) 3,923 6.0 -8.6°
